Location: Cuiry
(49.3858°N, 3.7708°E)
Time: 21:20:23
(UTC+00:00)

ATLAS 3B R/B - Pass Details

Date: 12 January 2026
Orbit: 936 x 1258 km, 63.8° (Epoch: 15 February)

Event Time Altitude Azimuth Distance (km) Brightness Sun altitude
Rises 19:37:07 0° 294° (WNW) 4,187 6.8 -32.9°
Reaches altitude 10° 19:40:26 10° 306° (NW) 3,238 5.8 -33.5°
Maximum altitude 19:47:02 28° 3° (N) 2,170 4.2 -34.5°
Enters shadow 19:47:19 28° 6° (N) 2,172 4.2 -34.6°
